Вернуться в каталог

STARLINK-30381

АктивенСвязьVLEO
NORAD 57785·PAYLOAD·🇺🇸 United States

Запущен Sep 4, 2023 с Cape Canaveral Space Force Station

Loading…

Ближайшие Пролёты (ближайшие 24 часа)

TLE

СвежийSource: CelesTrak SupGP

Эпоха: Sep 14, 2026, 21:15 UTC

1 57785C 23134Q   26257.88590278  .00019629  00000+0  71103-3 0  2572
2 57785  43.0015 205.9450 0001252 258.2069  26.2380 15.27566043    15

Отслеживайте STARLINK-30381 в реальном времени с AllMySat

Download on the App Store